Time,TemperatureF,DewpointF,PressureIn,WindDirection,WindDirectionDegrees,WindSpeedMPH,WindSpeedGustMPH,Humidity,HourlyPrecipIn,Conditions,Clouds,dailyrainin,SoftwareType,DateUTC
2013-03-25 00:00:00,36.6,34.8,29.63,SSE,148,0.0,0.0,93,0.00,,,0.00,Wunderground v.1.15,2013-03-25 04:00:00,
2013-03-25 00:05:00,36.4,34.6,29.62,SSE,147,0.0,0.0,93,0.00,,,0.00,Wunderground v.1.15,2013-03-25 04:05:00,
2013-03-25 00:15:00,36.4,34.6,29.62,SE,144,0.0,0.0,93,0.00,,,0.00,Wunderground v.1.15,2013-03-25 04:15:00,
2013-03-25 00:20:00,36.4,34.6,29.62,SE,142,0.0,0.0,93,0.00,,,0.00,Wunderground v.1.15,2013-03-25 04:20:00,
2013-03-25 00:25:00,36.3,34.5,29.63,SE,142,0.0,0.0,93,0.00,,,0.00,Wunderground v.1.15,2013-03-25 04:25:00,
2013-03-25 00:30:00,36.2,34.4,29.61,SE,136,0.0,0.0,93,0.00,,,0.00,Wunderground v.1.15,2013-03-25 04:30:00,
2013-03-25 00:40:00,36.2,34.4,29.61,SE,136,0.0,0.0,93,0.00,,,0.00,Wunderground v.1.15,2013-03-25 04:40:00,
2013-03-25 00:50:00,36.2,34.6,29.62,SE,135,0.0,0.0,94,0.00,,,0.00,Wunderground v.1.15,2013-03-25 04:50:00,
2013-03-25 01:00:00,36.1,34.5,29.62,SE,135,0.0,0.0,94,0.00,,,0.00,Wunderground v.1.15,2013-03-25 05:00:00,
2013-03-25 01:05:00,36.1,34.5,29.62,SE,135,0.0,0.0,94,0.00,,,0.00,Wunderground v.1.15,2013-03-25 05:05:00,
2013-03-25 01:15:00,36.1,34.5,29.63,SE,135,0.0,0.0,94,0.00,,,0.00,Wunderground v.1.15,2013-03-25 05:15:00,
2013-03-25 01:20:00,36.1,34.5,29.63,SE,135,0.0,0.0,94,0.00,,,0.00,Wunderground v.1.15,2013-03-25 05:20:00,
2013-03-25 01:30:00,36.1,34.5,29.64,SE,135,0.0,0.0,94,0.00,,,0.00,Wunderground v.1.15,2013-03-25 05:30:00,
2013-03-25 01:35:00,36.2,34.6,29.64,SE,135,0.0,0.0,94,0.00,,,0.00,Wunderground v.1.15,2013-03-25 05:35:00,
2013-03-25 01:45:00,36.2,34.6,29.63,SE,135,0.0,0.0,94,0.00,,,0.00,Wunderground v.1.15,2013-03-25 05:45:00,
2013-03-25 01:50:00,36.2,34.6,29.62,SE,135,0.0,2.0,94,0.00,,,0.00,Wunderground v.1.15,2013-03-25 05:50:00,
2013-03-25 02:00:00,36.2,34.6,29.61,SE,135,0.0,0.0,94,0.00,,,0.00,Wunderground v.1.15,2013-03-25 06:00:00,
2013-03-25 02:05:00,36.1,34.5,29.61,SE,135,0.0,0.0,94,0.00,,,0.00,Wunderground v.1.15,2013-03-25 06:05:00,
2013-03-25 02:15:00,36.1,34.5,29.60,SE,135,0.0,0.0,94,0.00,,,0.00,Wunderground v.1.15,2013-03-25 06:15:00,
2013-03-25 02:25:00,36.1,34.5,29.59,SE,135,0.0,0.0,94,0.00,,,0.00,Wunderground v.1.15,2013-03-25 06:25:00,
2013-03-25 02:35:00,36.1,34.5,29.59,SE,135,0.0,0.0,94,0.00,,,0.00,Wunderground v.1.15,2013-03-25 06:35:00,
2013-03-25 02:45:00,36.1,34.5,29.58,SE,135,0.0,0.0,94,0.00,,,0.00,Wunderground v.1.15,2013-03-25 06:45:00,
2013-03-25 02:50:00,36.1,34.5,29.59,SE,135,0.0,0.0,94,0.00,,,0.00,Wunderground v.1.15,2013-03-25 06:50:00,
2013-03-25 03:00:00,36.1,34.8,29.59,SSE,157,1.0,1.0,95,0.00,,,0.00,Wunderground v.1.15,2013-03-25 07:00:00,
2013-03-25 03:05:00,36.2,34.9,29.60,SSE,162,1.0,1.0,95,0.00,,,0.00,Wunderground v.1.15,2013-03-25 07:05:00,
2013-03-25 03:15:00,36.3,35.0,29.59,South,179,0.0,2.0,95,0.00,,,0.00,Wunderground v.1.15,2013-03-25 07:15:00,
2013-03-25 03:25:00,36.2,34.9,29.57,South,179,0.0,0.0,95,0.00,,,0.00,Wunderground v.1.15,2013-03-25 07:25:00,
2013-03-25 03:35:00,36.2,34.9,29.58,South,179,0.0,0.0,95,0.00,,,0.00,Wunderground v.1.15,2013-03-25 07:35:00,
2013-03-25 03:45:00,36.2,34.9,29.58,South,179,0.0,0.0,95,0.00,,,0.00,Wunderground v.1.15,2013-03-25 07:45:00,
2013-03-25 03:55:00,36.3,35.0,29.58,South,179,0.0,0.0,95,0.00,,,0.00,Wunderground v.1.15,2013-03-25 07:55:00,
2013-03-25 04:05:00,36.4,35.1,29.59,WSW,253,2.0,4.0,95,0.00,,,0.00,Wunderground v.1.15,2013-03-25 08:05:00,
2013-03-25 04:15:00,36.4,35.1,29.59,WSW,257,1.0,1.0,95,0.00,,,0.00,Wunderground v.1.15,2013-03-25 08:15:00,
2013-03-25 04:20:00,36.3,35.0,29.60,West,265,1.0,3.0,95,0.00,,,0.00,Wunderground v.1.15,2013-03-25 08:20:00,
2013-03-25 04:30:00,36.2,34.9,29.60,West,266,2.0,2.0,95,0.00,,,0.00,Wunderground v.1.15,2013-03-25 08:30:00,
2013-03-25 04:40:00,36.2,34.9,29.59,West,273,1.0,1.0,95,0.00,,,0.00,Wunderground v.1.15,2013-03-25 08:40:00,
2013-03-25 04:50:00,36.1,34.8,29.60,West,273,1.0,2.0,95,0.00,,,0.00,Wunderground v.1.15,2013-03-25 08:50:00,
2013-03-25 05:00:00,36.2,34.9,29.60,West,273,1.0,4.0,95,0.00,,,0.00,Wunderground v.1.15,2013-03-25 09:00:00,
2013-03-25 05:05:00,36.2,34.9,29.59,West,273,1.0,4.0,95,0.00,,,0.00,Wunderground v.1.15,2013-03-25 09:05:00,
2013-03-25 05:15:00,36.1,34.8,29.59,West,277,1.0,4.0,95,0.00,,,0.00,Wunderground v.1.15,2013-03-25 09:15:00,
2013-03-25 05:25:00,36.1,34.8,29.59,West,277,1.0,2.0,95,0.00,,,0.00,Wunderground v.1.15,2013-03-25 09:25:00,
2013-03-25 05:35:00,36.2,34.9,29.60,West,277,1.0,1.0,95,0.00,,,0.00,Wunderground v.1.15,2013-03-25 09:35:00,
2013-03-25 05:45:00,36.2,34.9,29.60,West,277,2.0,2.0,95,0.00,,,0.01,Wunderground v.1.15,2013-03-25 09:45:00,
2013-03-25 05:55:00,36.4,35.1,29.60,West,261,2.0,4.0,95,0.00,,,0.01,Wunderground v.1.15,2013-03-25 09:55:00,
2013-03-25 06:05:00,36.2,34.9,29.60,WNW,288,2.0,5.0,95,0.00,,,0.01,Wunderground v.1.15,2013-03-25 10:05:00,
2013-03-25 06:15:00,35.9,34.6,29.60,WNW,299,3.0,3.0,95,0.00,,,0.01,Wunderground v.1.15,2013-03-25 10:15:00,
2013-03-25 06:25:00,35.9,34.9,29.60,WNW,299,2.0,5.0,96,0.00,,,0.01,Wunderground v.1.15,2013-03-25 10:25:00,
2013-03-25 06:30:00,35.9,34.6,29.60,WNW,299,2.0,2.0,95,0.00,,,0.01,Wunderground v.1.15,2013-03-25 10:30:00,
2013-03-25 06:40:00,35.8,34.8,29.60,WNW,299,1.0,1.0,96,0.00,,,0.01,Wunderground v.1.15,2013-03-25 10:40:00,
2013-03-25 06:50:00,35.7,34.4,29.60,WNW,299,1.0,1.0,95,0.00,,,0.01,Wunderground v.1.15,2013-03-25 10:50:00,
2013-03-25 06:55:00,35.7,34.4,29.60,WNW,299,0.0,2.0,95,0.00,,,0.01,Wunderground v.1.15,2013-03-25 10:55:00,
2013-03-25 07:05:00,35.7,34.4,29.60,WNW,299,2.0,4.0,95,0.00,,,0.01,Wunderground v.1.15,2013-03-25 11:05:00,
2013-03-25 07:15:00,35.7,34.7,29.60,WNW,299,1.0,2.0,96,0.00,,,0.01,Wunderground v.1.15,2013-03-25 11:15:00,
2013-03-25 07:25:00,35.8,34.8,29.60,WNW,299,0.0,0.0,96,0.00,,,0.01,Wunderground v.1.15,2013-03-25 11:25:00,
2013-03-25 07:35:00,35.7,34.4,29.60,WNW,299,1.0,1.0,95,0.00,,,0.01,Wunderground v.1.15,2013-03-25 11:35:00,
2013-03-25 07:45:00,35.8,34.8,29.60,WNW,299,0.0,1.0,96,0.00,,,0.01,Wunderground v.1.15,2013-03-25 11:45:00,
2013-03-25 07:55:00,35.8,34.8,29.60,WNW,299,0.0,0.0,96,0.00,,,0.01,Wunderground v.1.15,2013-03-25 11:55:00,
2013-03-25 08:05:00,35.9,34.9,29.60,WNW,297,0.0,0.0,96,0.00,,,0.01,Wunderground v.1.15,2013-03-25 12:05:00,
2013-03-25 08:15:00,35.9,34.9,29.60,WNW,296,1.0,4.0,96,0.00,,,0.01,Wunderground v.1.15,2013-03-25 12:15:00,
2013-03-25 08:25:00,36.1,35.1,29.60,WNW,296,0.0,0.0,96,0.00,,,0.01,Wunderground v.1.15,2013-03-25 12:25:00,
2013-03-25 08:35:00,36.3,35.3,29.60,WNW,296,0.0,1.0,96,0.00,,,0.01,Wunderground v.1.15,2013-03-25 12:35:00,
2013-03-25 08:40:00,36.4,35.4,29.60,WNW,296,0.0,0.0,96,0.00,,,0.01,Wunderground v.1.15,2013-03-25 12:40:00,
2013-03-25 08:50:00,36.5,35.5,29.61,WNW,296,1.0,1.0,96,0.00,,,0.01,Wunderground v.1.15,2013-03-25 12:50:00,
2013-03-25 09:00:00,36.7,35.7,29.61,WNW,296,2.0,2.0,96,0.00,,,0.01,Wunderground v.1.15,2013-03-25 13:00:00,
2013-03-25 09:05:00,36.7,35.7,29.62,West,265,2.0,2.0,96,0.00,,,0.01,Wunderground v.1.15,2013-03-25 13:05:00,
2013-03-25 09:15:00,36.9,35.9,29.62,West,265,3.0,3.0,96,0.00,,,0.01,Wunderground v.1.15,2013-03-25 13:15:00,
2013-03-25 09:25:00,37.0,36.0,29.62,West,279,3.0,5.0,96,0.00,,,0.01,Wunderground v.1.15,2013-03-25 13:25:00,
2013-03-25 09:35:00,37.0,36.0,29.62,WNW,282,4.0,7.0,96,0.00,,,0.01,Wunderground v.1.15,2013-03-25 13:35:00,
2013-03-25 09:45:00,37.1,36.1,29.63,West,281,2.0,4.0,96,0.00,,,0.01,Wunderground v.1.15,2013-03-25 13:45:00,
2013-03-25 09:55:00,37.2,36.2,29.63,WNW,289,4.0,5.0,96,0.00,,,0.01,Wunderground v.1.15,2013-03-25 13:55:00,
2013-03-25 10:00:00,37.3,36.3,29.63,West,281,4.0,5.0,96,0.00,,,0.01,Wunderground v.1.15,2013-03-25 14:00:00,
2013-03-25 10:05:00,37.2,36.2,29.63,West,260,4.0,5.0,96,0.00,,,0.01,Wunderground v.1.15,2013-03-25 14:05:00,
2013-03-25 10:15:00,37.3,36.3,29.63,West,271,4.0,6.0,96,0.00,,,0.01,Wunderground v.1.15,2013-03-25 14:15:00,
2013-03-25 10:25:00,37.6,36.6,29.63,West,265,4.0,5.0,96,0.00,,,0.01,Wunderground v.1.15,2013-03-25 14:25:00,
2013-03-25 10:35:00,37.7,36.4,29.63,West,263,4.0,6.0,95,0.00,,,0.01,Wunderground v.1.15,2013-03-25 14:35:00,
2013-03-25 10:45:00,38.0,36.7,29.62,SW,232,4.0,4.0,95,0.00,,,0.01,Wunderground v.1.15,2013-03-25 14:45:00,
2013-03-25 10:55:00,38.4,37.1,29.62,WSW,240,3.0,4.0,95,0.00,,,0.01,Wunderground v.1.15,2013-03-25 14:55:00,
2013-03-25 11:05:00,38.8,37.5,29.62,WSW,244,3.0,4.0,95,0.00,,,0.01,Wunderground v.1.15,2013-03-25 15:05:00,
2013-03-25 11:15:00,39.5,38.2,29.62,WSW,255,4.0,6.0,95,0.00,,,0.01,Wunderground v.1.15,2013-03-25 15:15:00,
2013-03-25 11:20:00,39.7,38.1,29.63,West,263,5.0,5.0,94,0.00,,,0.01,Wunderground v.1.15,2013-03-25 15:20:00,
2013-03-25 11:30:00,40.4,38.5,29.63,West,266,7.0,7.0,93,0.00,,,0.01,Wunderground v.1.15,2013-03-25 15:30:00,
2013-03-25 11:35:00,40.7,38.6,29.63,WNW,282,7.0,13.0,92,0.00,,,0.01,Wunderground v.1.15,2013-03-25 15:35:00,
2013-03-25 11:45:00,41.0,38.0,29.63,SW,236,9.0,9.0,89,0.00,,,0.01,Wunderground v.1.15,2013-03-25 15:45:00,
2013-03-25 11:55:00,41.8,38.2,29.63,WSW,257,8.0,8.0,87,0.00,,,0.01,Wunderground v.1.15,2013-03-25 15:55:00,
2013-03-25 12:05:00,42.7,38.2,29.63,WSW,257,9.0,10.0,84,0.00,,,0.01,Wunderground v.1.15,2013-03-25 16:05:00,
2013-03-25 12:15:00,43.6,38.2,29.63,WSW,257,9.0,15.0,81,0.00,,,0.01,Wunderground v.1.15,2013-03-25 16:15:00,
2013-03-25 12:25:00,44.9,38.8,29.62,West,259,8.0,10.0,79,0.00,,,0.01,Wunderground v.1.15,2013-03-25 16:25:00,
2013-03-25 12:30:00,45.2,37.7,29.62,WSW,250,7.0,7.0,75,0.00,,,0.01,Wunderground v.1.15,2013-03-25 16:30:00,
2013-03-25 12:40:00,45.6,38.8,29.62,NW,304,8.0,8.0,77,0.00,,,0.01,Wunderground v.1.15,2013-03-25 16:40:00,
2013-03-25 12:50:00,46.4,38.9,29.62,WNW,296,9.0,9.0,75,0.00,,,0.01,Wunderground v.1.15,2013-03-25 16:50:00,
2013-03-25 13:00:00,46.5,38.3,29.61,WNW,298,8.0,8.0,73,0.00,,,0.01,Wunderground v.1.15,2013-03-25 17:00:00,
2013-03-25 13:05:00,46.9,38.3,29.61,West,259,8.0,10.0,72,0.00,,,0.01,Wunderground v.1.15,2013-03-25 17:05:00,
2013-03-25 13:15:00,46.6,36.2,29.61,NW,308,8.0,8.0,67,0.00,,,0.01,Wunderground v.1.15,2013-03-25 17:15:00,
2013-03-25 13:20:00,46.4,36.0,29.61,WNW,293,8.0,8.0,67,0.00,,,0.01,Wunderground v.1.15,2013-03-25 17:20:00,
2013-03-25 13:30:00,46.0,36.0,29.61,West,278,6.0,15.0,68,0.00,,,0.01,Wunderground v.1.15,2013-03-25 17:30:00,
2013-03-25 13:40:00,46.0,33.7,29.61,West,278,8.0,8.0,62,0.00,,,0.01,Wunderground v.1.15,2013-03-25 17:40:00,
2013-03-25 13:50:00,46.2,33.5,29.61,West,266,8.0,8.0,61,0.00,,,0.01,Wunderground v.1.15,2013-03-25 17:50:00,
2013-03-25 13:55:00,46.3,33.6,29.61,WNW,294,7.0,8.0,61,0.00,,,0.01,Wunderground v.1.15,2013-03-25 17:55:00,
2013-03-25 14:00:00,46.3,32.3,29.61,West,259,7.0,7.0,58,0.00,,,0.01,Wunderground v.1.15,2013-03-25 18:00:00,
2013-03-25 14:05:00,46.1,33.8,29.61,NW,305,7.0,7.0,62,0.00,,,0.01,Wunderground v.1.15,2013-03-25 18:05:00,
2013-03-25 14:15:00,45.4,34.3,29.61,NW,307,4.0,8.0,65,0.00,,,0.01,Wunderground v.1.15,2013-03-25 18:15:00,
2013-03-25 14:20:00,45.7,33.8,29.61,WNW,293,5.0,11.0,63,0.00,,,0.01,Wunderground v.1.15,2013-03-25 18:20:00,
2013-03-25 14:30:00,45.8,33.5,29.62,WNW,288,8.0,9.0,62,0.00,,,0.01,Wunderground v.1.15,2013-03-25 18:30:00,
2013-03-25 14:40:00,45.7,30.4,29.62,WSW,253,13.0,17.0,55,0.00,,,0.01,Wunderground v.1.15,2013-03-25 18:40:00,
2013-03-25 14:50:00,45.6,30.3,29.62,West,274,14.0,19.0,55,0.00,,,0.01,Wunderground v.1.15,2013-03-25 18:50:00,
2013-03-25 14:55:00,45.8,30.1,29.61,West,278,15.0,19.0,54,0.00,,,0.01,Wunderground v.1.15,2013-03-25 18:55:00,
2013-03-25 15:05:00,45.8,29.6,29.61,WSW,257,13.0,14.0,53,0.00,,,0.01,Wunderground v.1.15,2013-03-25 19:05:00,
2013-03-25 15:15:00,46.0,30.3,29.61,NW,321,13.0,19.0,54,0.00,,,0.01,Wunderground v.1.15,2013-03-25 19:15:00,
2013-03-25 15:25:00,45.8,28.2,29.62,WNW,295,14.0,15.0,50,0.00,,,0.01,Wunderground v.1.15,2013-03-25 19:25:00,
2013-03-25 15:35:00,45.5,29.3,29.63,WNW,285,14.0,21.0,53,0.00,,,0.01,Wunderground v.1.15,2013-03-25 19:35:00,
2013-03-25 15:45:00,45.8,29.2,29.62,WNW,298,16.0,19.0,52,0.00,,,0.01,Wunderground v.1.15,2013-03-25 19:45:00,
2013-03-25 15:50:00,46.8,29.6,29.62,West,266,15.0,15.0,51,0.00,,,0.01,Wunderground v.1.15,2013-03-25 19:50:00,
2013-03-25 16:00:00,47.7,30.0,29.62,WSW,257,12.0,12.0,50,0.00,,,0.01,Wunderground v.1.15,2013-03-25 20:00:00,
2013-03-25 16:05:00,47.8,29.0,29.63,WNW,288,12.0,22.0,48,0.00,,,0.01,Wunderground v.1.15,2013-03-25 20:05:00,
2013-03-25 16:15:00,48.0,29.2,29.62,West,278,15.0,15.0,48,0.00,,,0.01,Wunderground v.1.15,2013-03-25 20:15:00,
2013-03-25 16:25:00,47.6,28.3,29.63,WNW,296,12.0,18.0,47,0.00,,,0.01,Wunderground v.1.15,2013-03-25 20:25:00,
2013-03-25 16:35:00,46.8,28.1,29.64,West,270,13.0,14.0,48,0.00,,,0.01,Wunderground v.1.15,2013-03-25 20:35:00,
2013-03-25 16:45:00,46.3,27.7,29.64,WSW,239,11.0,16.0,48,0.00,,,0.01,Wunderground v.1.15,2013-03-25 20:45:00,
2013-03-25 16:55:00,46.3,27.2,29.64,West,261,11.0,16.0,47,0.00,,,0.01,Wunderground v.1.15,2013-03-25 20:55:00,
2013-03-25 17:05:00,46.0,26.9,29.65,West,275,14.0,14.0,47,0.00,,,0.01,Wunderground v.1.15,2013-03-25 21:05:00,
2013-03-25 17:15:00,46.1,27.0,29.65,NNW,346,14.0,14.0,47,0.00,,,0.01,Wunderground v.1.15,2013-03-25 21:15:00,
2013-03-25 17:25:00,46.5,28.3,29.66,WNW,290,11.0,19.0,49,0.00,,,0.01,Wunderground v.1.15,2013-03-25 21:25:00,
2013-03-25 17:35:00,46.4,27.2,29.66,West,276,11.0,11.0,47,0.00,,,0.01,Wunderground v.1.15,2013-03-25 21:35:00,
2013-03-25 17:40:00,46.3,26.6,29.67,WNW,299,13.0,21.0,46,0.00,,,0.01,Wunderground v.1.15,2013-03-25 21:40:00,
2013-03-25 17:50:00,46.0,27.4,29.67,WNW,292,13.0,13.0,48,0.00,,,0.01,Wunderground v.1.15,2013-03-25 21:50:00,
2013-03-25 17:55:00,45.9,28.3,29.67,West,263,11.0,13.0,50,0.00,,,0.01,Wunderground v.1.15,2013-03-25 21:55:00,
2013-03-25 18:05:00,45.9,28.3,29.67,West,272,10.0,13.0,50,0.00,,,0.01,Wunderground v.1.15,2013-03-25 22:05:00,
2013-03-25 18:15:00,46.0,27.4,29.68,West,274,8.0,14.0,48,0.00,,,0.01,Wunderground v.1.15,2013-03-25 22:15:00,
2013-03-25 18:20:00,45.8,25.6,29.68,WSW,254,10.0,13.0,45,0.00,,,0.01,Wunderground v.1.15,2013-03-25 22:20:00,
2013-03-25 18:30:00,45.9,26.8,29.69,West,269,9.0,9.0,47,0.00,,,0.01,Wunderground v.1.15,2013-03-25 22:30:00,
2013-03-25 18:40:00,45.7,26.6,29.69,West,281,10.0,10.0,47,0.00,,,0.01,Wunderground v.1.15,2013-03-25 22:40:00,
2013-03-25 18:50:00,45.8,26.2,29.70,West,271,9.0,9.0,46,0.00,,,0.01,Wunderground v.1.15,2013-03-25 22:50:00,
2013-03-25 19:00:00,45.4,27.3,29.71,West,267,9.0,9.0,49,0.00,,,0.01,Wunderground v.1.15,2013-03-25 23:00:00,
2013-03-25 19:05:00,45.2,27.2,29.71,NW,315,8.0,9.0,49,0.00,,,0.01,Wunderground v.1.15,2013-03-25 23:05:00,
2013-03-25 19:15:00,45.2,26.1,29.72,West,268,10.0,13.0,47,0.00,,,0.01,Wunderground v.1.15,2013-03-25 23:15:00,
2013-03-25 19:25:00,44.9,26.4,29.73,WSW,257,9.0,12.0,48,0.00,,,0.01,Wunderground v.1.15,2013-03-25 23:25:00,
2013-03-25 19:30:00,44.9,25.9,29.73,West,267,10.0,10.0,47,0.00,,,0.01,Wunderground v.1.15,2013-03-25 23:30:00,
2013-03-25 19:40:00,44.6,26.6,29.74,West,274,7.0,7.0,49,0.00,,,0.01,Wunderground v.1.15,2013-03-25 23:40:00,
2013-03-25 19:50:00,44.6,26.6,29.74,WSW,257,6.0,8.0,49,0.00,,,0.01,Wunderground v.1.15,2013-03-25 23:50:00,
2013-03-25 20:00:00,44.5,26.5,29.75,WNW,294,6.0,13.0,49,0.00,,,0.01,Wunderground v.1.15,2013-03-26 00:00:00,
2013-03-25 20:05:00,44.5,27.0,29.75,West,271,7.0,13.0,50,0.00,,,0.01,Wunderground v.1.15,2013-03-26 00:05:00,
2013-03-25 20:15:00,44.3,26.8,29.75,WSW,257,6.0,6.0,50,0.00,,,0.01,Wunderground v.1.15,2013-03-26 00:15:00,
2013-03-25 20:25:00,44.3,26.8,29.75,WNW,287,9.0,9.0,50,0.00,,,0.01,Wunderground v.1.15,2013-03-26 00:25:00,
2013-03-25 20:30:00,44.1,26.6,29.76,West,272,8.0,11.0,50,0.00,,,0.01,Wunderground v.1.15,2013-03-26 00:30:00,
2013-03-25 20:40:00,43.9,26.4,29.76,WSW,255,8.0,8.0,50,0.00,,,0.01,Wunderground v.1.15,2013-03-26 00:40:00,
2013-03-25 20:50:00,43.8,26.3,29.77,WSW,256,6.0,6.0,50,0.00,,,0.01,Wunderground v.1.15,2013-03-26 00:50:00,
2013-03-25 21:00:00,43.7,27.7,29.78,West,274,6.0,6.0,53,0.00,,,0.01,Wunderground v.1.15,2013-03-26 01:00:00,
2013-03-25 21:05:00,43.4,26.9,29.78,WSW,257,5.0,6.0,52,0.00,,,0.01,Wunderground v.1.15,2013-03-26 01:05:00,
2013-03-25 21:15:00,43.1,26.7,29.78,West,263,5.0,7.0,52,0.00,,,0.01,Wunderground v.1.15,2013-03-26 01:15:00,
2013-03-25 21:20:00,43.0,27.0,29.79,West,271,5.0,5.0,53,0.00,,,0.01,Wunderground v.1.15,2013-03-26 01:20:00,
2013-03-25 21:30:00,42.7,27.6,29.79,West,272,2.0,2.0,55,0.00,,,0.01,Wunderground v.1.15,2013-03-26 01:30:00,
2013-03-25 21:40:00,42.2,28.0,29.79,West,271,2.0,2.0,57,0.00,,,0.01,Wunderground v.1.15,2013-03-26 01:40:00,
2013-03-25 21:50:00,42.2,28.0,29.80,West,270,2.0,4.0,57,0.00,,,0.01,Wunderground v.1.15,2013-03-26 01:50:00,
2013-03-25 22:00:00,42.2,28.5,29.80,West,272,2.0,5.0,58,0.00,,,0.01,Wunderground v.1.15,2013-03-26 02:00:00,
2013-03-25 22:05:00,42.1,28.4,29.80,West,272,2.0,5.0,58,0.00,,,0.01,Wunderground v.1.15,2013-03-26 02:05:00,
2013-03-25 22:15:00,42.2,28.5,29.81,West,273,3.0,5.0,58,0.00,,,0.01,Wunderground v.1.15,2013-03-26 02:15:00,
2013-03-25 22:25:00,42.1,28.8,29.81,WNW,285,3.0,8.0,59,0.00,,,0.01,Wunderground v.1.15,2013-03-26 02:25:00,
2013-03-25 22:35:00,41.8,28.5,29.81,WNW,290,3.0,4.0,59,0.00,,,0.01,Wunderground v.1.15,2013-03-26 02:35:00,
2013-03-25 22:45:00,41.5,27.8,29.81,WNW,290,2.0,3.0,58,0.00,,,0.01,Wunderground v.1.15,2013-03-26 02:45:00,
2013-03-25 22:55:00,41.4,28.1,29.82,West,268,3.0,5.0,59,0.00,,,0.01,Wunderground v.1.15,2013-03-26 02:55:00,
2013-03-25 23:05:00,41.3,28.0,29.82,West,274,5.0,11.0,59,0.00,,,0.01,Wunderground v.1.15,2013-03-26 03:05:00,
2013-03-25 23:15:00,41.2,27.9,29.82,West,279,6.0,11.0,59,0.00,,,0.01,Wunderground v.1.15,2013-03-26 03:15:00,
2013-03-25 23:25:00,40.9,26.8,29.82,WNW,289,5.0,12.0,57,0.00,,,0.01,Wunderground v.1.15,2013-03-26 03:25:00,
2013-03-25 23:30:00,40.9,26.8,29.83,West,281,6.0,7.0,57,0.00,,,0.01,Wunderground v.1.15,2013-03-26 03:30:00,
2013-03-25 23:40:00,40.8,27.2,29.83,West,281,6.0,6.0,58,0.00,,,0.01,Wunderground v.1.15,2013-03-26 03:40:00,
2013-03-25 23:50:00,40.5,26.0,29.83,West,267,7.0,7.0,56,0.00,,,0.01,Wunderground v.1.15,2013-03-26 03:50:00,